Wildwood, NJ

9:17 AM EDT on March 28, 2017 (GMT -0400)
Cape May County

Weather History for KWWD - July, 2013

Change the Weather History Date:

Wednesday, July 10, 2013

  Actual Average Record
Temperature  
Mean Temperature 79 °F -  
Max Temperature 87 °F 80 °F 89 °F (1999)
Min Temperature 71 °F 65 °F 59 °F (2004)
Cooling Degree Days 14    
Growing Degree Days 29 (Base 50)    
Moisture  
Dew Point 72 °F    
Average Humidity 79    
Maximum Humidity 94    
Minimum Humidity 62    
Precipitation  
Precipitation 0.00 in - - ()
Sea Level Pressure  
Sea Level Pressure 29.96 in    
Wind  
Wind Speed 7 mph (SSW)    
Max Wind Speed 13 mph    
Max Gust Speed 21 mph    
Visibility 9 miles    
Events Thunderstorm    
Averages and records for this station are not official NWS values.
T = Trace of Precipitation, MM = Missing Value Source: NWS Daily Summary

Daily Weather History Graph

Daily Weather History Graph

Search for Another Location

Airport or City:

Trip Planner

Search our weather history database for the weather conditions in past years. The results will help you decide how hot, cold, wet, or windy it might be!

Date:

Astronomy

Jul. 10, 2013 Rise Set
Actual Time 5:42 AM EDT 8:26 PM EDT
Civil Twilight 5:11 AM EDT 8:58 PM EDT
Nautical Twilight 4:31 AM EDT 9:37 PM EDT
Astronomical Twilight 3:47 AM EDT 10:22 PM EDT
Moon 8:00 AM EDT (7/10) 9:37 PM EDT (7/10)
Length of Visible Light 15h 46m
Length of Day
14h 43m
Waxing Crescent, 5% of the Moon is Illuminated
Jul 10
Waxing Crescent
Jul 15
First Quarter
Jul 22
Full
Jul 29
Last Quarter
Aug 6
New

Hourly Weather History & Observations

Time (EDT) Temp. Heat Index Dew Point Humidity Pressure Visibility Wind Dir Wind Speed Gust Speed Precip Events Conditions
12:15 AM 73.4 °F - 68.0 °F 83% 30.05 in 5.0 mi West 3.5 mph - N/A   Mostly Cloudy
12:35 AM 73.4 °F - 69.8 °F 88% 30.05 in 8.0 mi SSE 4.6 mph - N/A   Partly Cloudy
12:55 AM 73.4 °F - 69.8 °F 88% 30.04 in 9.0 mi SSE 5.8 mph - N/A   Clear
1:15 AM 73.4 °F - 69.8 °F 88% 30.04 in 10.0 mi SSE 6.9 mph - N/A   Scattered Clouds
1:35 AM 71.6 °F - 68.0 °F 88% 30.04 in 9.0 mi South 6.9 mph - N/A   Scattered Clouds
1:55 AM 71.6 °F - 66.2 °F 83% 30.03 in 10.0 mi South 6.9 mph - N/A   Mostly Cloudy
2:15 AM 71.6 °F - 68.0 °F 88% 30.02 in 9.0 mi South 8.1 mph - N/A   Mostly Cloudy
2:35 AM 71.6 °F - 68.0 °F 88% 30.02 in 10.0 mi South 5.8 mph - N/A   Mostly Cloudy
2:55 AM 71.6 °F - 66.2 °F 83% 30.01 in 10.0 mi South 6.9 mph - N/A   Partly Cloudy
3:15 AM 71.6 °F - 66.2 °F 83% 30.00 in 9.0 mi South 6.9 mph - N/A   Clear
3:35 AM 71.6 °F - 66.2 °F 83% 30.00 in 8.0 mi South 5.8 mph - N/A   Clear
3:55 AM 71.6 °F - 68.0 °F 88% 30.00 in 7.0 mi South 4.6 mph - N/A   Scattered Clouds
4:15 AM 71.6 °F - 69.8 °F 94% 29.99 in 7.0 mi South 5.8 mph - N/A   Mostly Cloudy
4:35 AM 71.6 °F - 68.0 °F 88% 29.99 in 5.0 mi Calm Calm - N/A   Scattered Clouds
4:55 AM 71.6 °F - 68.0 °F 88% 29.99 in 6.0 mi SSE 4.6 mph - N/A   Partly Cloudy
5:15 AM 71.6 °F - 68.0 °F 88% 30.00 in 5.0 mi SE 5.8 mph - N/A   Clear
5:35 AM 71.6 °F - 66.2 °F 83% 30.00 in 5.0 mi South 4.6 mph - N/A   Clear
5:55 AM 71.6 °F - 69.8 °F 94% 30.00 in 9.0 mi South 5.8 mph - N/A   Partly Cloudy
6:15 AM 73.4 °F - 71.6 °F 94% 30.00 in 10.0 mi SSW 6.9 mph - N/A   Scattered Clouds
6:35 AM 73.4 °F - 71.6 °F 94% 30.00 in 10.0 mi SSW 8.1 mph - N/A   Mostly Cloudy
6:55 AM 75.2 °F - 71.6 °F 89% 30.01 in 10.0 mi SSW 6.9 mph - N/A   Mostly Cloudy
7:15 AM 75.2 °F - 71.6 °F 89% 30.01 in 10.0 mi SSW 6.9 mph - N/A   Mostly Cloudy
7:35 AM 75.2 °F - 71.6 °F 89% 30.00 in 10.0 mi South 8.1 mph - N/A   Mostly Cloudy
7:55 AM 75.2 °F - 71.6 °F 89% 30.00 in 9.0 mi South 5.8 mph - N/A   Partly Cloudy
8:15 AM 77.0 °F - 73.4 °F 89% 30.00 in 10.0 mi South 6.9 mph - N/A   Partly Cloudy
8:35 AM 77.0 °F - 73.4 °F 89% 30.00 in 10.0 mi South 8.1 mph - N/A   Scattered Clouds
8:55 AM 75.2 °F - 71.6 °F 89% 30.00 in 6.0 mi SSE 5.8 mph - N/A   Partly Cloudy
9:15 AM 75.2 °F - 71.6 °F 89% 30.00 in 9.0 mi South 8.1 mph - N/A   Clear
9:35 AM 78.8 °F - 71.6 °F 78% 30.00 in 10.0 mi SSW 11.5 mph - N/A   Clear
9:55 AM 80.6 °F 85.4 °F 73.4 °F 79% 29.99 in 10.0 mi SW 9.2 mph - N/A   Partly Cloudy
10:15 AM 80.6 °F 85.4 °F 73.4 °F 79% 30.00 in 10.0 mi SW 10.4 mph - N/A   Mostly Cloudy
10:35 AM 80.6 °F 86.2 °F 75.2 °F 84% 29.99 in 10.0 mi SW 11.5 mph - N/A   Mostly Cloudy
10:55 AM 82.4 °F 89.5 °F 75.2 °F 79% 30.00 in 10.0 mi SW 9.2 mph - N/A   Partly Cloudy
11:15 AM 84.2 °F 92.3 °F 75.2 °F 74% 29.99 in 10.0 mi SW 12.7 mph 17.3 mph N/A   Clear
11:35 AM 84.2 °F 92.3 °F 75.2 °F 74% 29.99 in 10.0 mi SW 11.5 mph - N/A   Clear
11:55 AM 84.2 °F 92.3 °F 75.2 °F 74% 29.99 in 10.0 mi SW 11.5 mph 17.3 mph N/A   Clear
12:15 PM 86.0 °F 95.1 °F 75.2 °F 70% 29.99 in 10.0 mi SSW 11.5 mph - N/A   Clear
12:35 PM 87.8 °F 97.6 °F 75.2 °F 66% 29.98 in 10.0 mi SSW 11.5 mph - N/A   Clear
12:55 PM 86.0 °F 95.1 °F 75.2 °F 70% 29.98 in 10.0 mi South 9.2 mph - N/A   Clear
1:15 PM 86.0 °F 95.1 °F 75.2 °F 70% 29.98 in 10.0 mi SW 9.2 mph - N/A   Clear
1:35 PM 86.0 °F 95.1 °F 75.2 °F 70% 29.97 in 10.0 mi SW 9.2 mph - N/A   Partly Cloudy
1:55 PM 86.0 °F 93.4 °F 73.4 °F 66% 29.96 in 10.0 mi SSW 9.2 mph - N/A   Scattered Clouds
2:15 PM 87.8 °F 97.6 °F 75.2 °F 66% 29.95 in 10.0 mi SSW 10.4 mph - N/A   Partly Cloudy
2:35 PM 87.8 °F 95.6 °F 73.4 °F 62% 29.94 in 10.0 mi SSW 9.2 mph - N/A   Partly Cloudy
2:55 PM 84.2 °F 90.9 °F 73.4 °F 70% 29.94 in 10.0 mi WSW 10.4 mph - N/A   Scattered Clouds
3:15 PM 84.2 °F 92.3 °F 75.2 °F 74% 29.93 in 10.0 mi SW 6.9 mph - N/A Thunderstorm Partly Cloudy
3:35 PM 84.2 °F 92.3 °F 75.2 °F 74% 29.93 in 10.0 mi South 8.1 mph - N/A   Partly Cloudy
3:55 PM 84.2 °F 92.3 °F 75.2 °F 74% 29.92 in 10.0 mi South 9.2 mph - N/A   Clear
4:15 PM 84.2 °F 90.9 °F 73.4 °F 70% 29.91 in 10.0 mi South 10.4 mph - N/A   Clear
4:35 PM 82.4 °F 87.2 °F 71.6 °F 70% 29.91 in 10.0 mi South 9.2 mph - N/A   Clear
4:55 PM 82.4 °F 88.2 °F 73.4 °F 74% 29.90 in 10.0 mi South 10.4 mph - N/A   Clear
5:15 PM 84.2 °F 90.9 °F 73.4 °F 70% 29.89 in 10.0 mi South 11.5 mph - N/A   Clear
5:35 PM 84.2 °F 90.9 °F 73.4 °F 70% 29.89 in 10.0 mi South 8.1 mph - N/A   Clear
5:55 PM 82.4 °F 87.2 °F 71.6 °F 70% 29.89 in 10.0 mi South 10.4 mph - N/A   Clear
6:15 PM 82.4 °F 87.2 °F 71.6 °F 70% 29.90 in 10.0 mi South 9.2 mph - N/A   Clear
6:35 PM 80.6 °F 84.6 °F 71.6 °F 74% 29.90 in 10.0 mi SSW 11.5 mph - N/A   Partly Cloudy
6:55 PM 80.6 °F 84.6 °F 71.6 °F 74% 29.90 in 10.0 mi South 9.2 mph - N/A   Clear
7:15 PM 80.6 °F 84.6 °F 71.6 °F 74% 29.91 in 10.0 mi SSW 6.9 mph - N/A   Clear
7:35 PM 80.6 °F 84.6 °F 71.6 °F 74% 29.91 in 10.0 mi SSW 6.9 mph - N/A   Clear
7:55 PM 78.8 °F - 71.6 °F 78% 29.91 in 10.0 mi SSW 8.1 mph - N/A   Partly Cloudy
8:15 PM 80.6 °F 84.6 °F 71.6 °F 74% 29.90 in 10.0 mi SSW 9.2 mph - N/A   Clear
8:35 PM 80.6 °F 85.4 °F 73.4 °F 79% 29.91 in 10.0 mi SSW 9.2 mph - N/A   Clear
8:55 PM 80.6 °F 85.4 °F 73.4 °F 79% 29.91 in 10.0 mi SSW 9.2 mph - N/A   Clear
9:15 PM 80.6 °F 85.4 °F 73.4 °F 79% 29.92 in 10.0 mi SW 10.4 mph - N/A   Clear
9:35 PM 80.6 °F 85.4 °F 73.4 °F 79% 29.92 in 10.0 mi SW 11.5 mph 20.7 mph N/A   Clear
9:55 PM 80.6 °F 84.6 °F 71.6 °F 74% 29.92 in 10.0 mi SW 9.2 mph - N/A   Clear
10:15 PM 80.6 °F 84.6 °F 71.6 °F 74% 29.92 in 10.0 mi SW 10.4 mph 18.4 mph N/A   Clear
10:35 PM 80.6 °F 84.6 °F 71.6 °F 74% 29.91 in 10.0 mi SW 9.2 mph - N/A   Clear
10:55 PM 78.8 °F - 71.6 °F 78% 29.90 in 10.0 mi SW 11.5 mph - N/A   Clear
11:15 PM 78.8 °F - 71.6 °F 78% 29.90 in 10.0 mi SW 11.5 mph - N/A   Clear
11:35 PM 78.8 °F - 71.6 °F 78% 29.90 in 10.0 mi SW 9.2 mph - N/A   Clear
11:55 PM 78.8 °F - 71.6 °F 78% 29.90 in 10.0 mi SW 9.2 mph - N/A   Scattered Clouds